Regional Weather Roundup
Issued by NWS Newport/Morehead, NC

Current Version | Previous Version | Graphics & Text | Print | Product List | Glossary Off
Versions: 1 2 3 4 5 6 7 8 9 10 11 12 13 14 15 16 17 18 19 20 21 22 23 24 25 26 27 28 29 30 31 32 33 34 35 36 37 38 39 40 41 42 43 44 45 46 47 48 49 50

000
ASUS42 KMHX 050224
RWRMHX
WEATHER ROUNDUP FOR EASTERN NORTH CAROLINA
NATIONAL WEATHER SERVICE NEWPORT/MOREHEAD CITY NC
900 PM EST WED MAR 04 2015

NOTE: "FAIR" INDICATES FEW OR NO CLOUDS BELOW 12,000 FEET
WITH NO SIGNIFICANT WEATHER AND/OR OBSTRUCTIONS TO VISIBILITY

NCZ015>017-031-032-045>047-102-103-050300-
NORTH COAST

CITY           SKY/WX    TMP DP  RH WIND       PRES   REMARKS
EDENTON        CLEAR     64  58  81 S13       29.89R
ELIZABETH CITY CLEAR     65  58  78 S18       29.88R
KITTY HAWK     PTCLDY    61  57  87 SW9G17    29.90R
MANTEO         PTCLDY    55  54  94 S18       29.92R

$$

NCZ045>047-081-094-103-104-050300-
CENTRAL COAST

CITY           SKY/WX    TMP DP  RH WIND       PRES   REMARKS
FRISCO         CLOUDY    57  57 100 SW14G20   29.98S FOG
SWANQUARTER      N/A     55 N/A N/A SW18G24   29.91S

$$

NCZ095-097-098-100-101-050300-
SOUTHERN COAST

CITY           SKY/WX    TMP DP  RH WIND       PRES   REMARKS
BEAUFORT       FOG       57  57 100 SW13      29.99R VSB 3/4
CEDAR ISLAND     N/A     64 N/A N/A S17       30.00S
JACKSONVILLE   PTCLDY    67  61  81 SW10G20   29.96R
PINEY ISLAND     N/A    N/A N/A N/A MISG      29.97S
WILMINGTON     PTCLDY    66  62  87 SW18G28   29.98R


$$

NCZ011>013-027>030-043-044-078>080-089-090>093-098-050300-
COASTAL PLAIN

CITY           SKY/WX    TMP DP  RH WIND       PRES   REMARKS
AHOSKIE        CLEAR     65  58  77 S3        29.88R
CLINTON        PTCLDY    68  62  81 S6        29.94R
ELIZABETHTOWN  PTCLDY    68  61  79 S6        29.96R
GOLDSBORO      PTCLDY    68  67  98 S12       29.90R
GREENVILLE     PTCLDY    68  61  77 SW10      29.93R
HAVELOCK       PTCLDY    65  61  87 SW15G26   29.97S
KENANSVILLE    PTCLDY    66  59  79 CALM      29.95R
KINSTON        PTCLDY    68  61  77 S13G20    29.93R
NEW BERN       PTCLDY    65  60  84 S10       29.96R
RICHLANDS      PTCLDY    64  59  82 S15G22    29.97R
ROCKY MOUNT    CLEAR     68  59  73 S8        29.89R
WASHINGTON     PTCLDY    68  59  74 SW12      29.91R
WHITEVILLE     CLEAR     67  61  81 S9        29.97R

$$

AMZ130-135-150-152-154-156-158-170-250-252-270-ANZ085-086-088-633-658-670-050300-
MARINE OBSERVATIONS

STATION/POSITION TIME  TEMP    WIND        PRES    WAVE   SWELL
                       AIR SEA DIR/SP/G            HT/PER HT/PER
                 (UTC) (F)     (DEG/KT/KT) (MB)    (FT/S) (FT/S)
CHESAPEAKE LIGHT 0200   52     170/ 14/ 15 1012.0
64 E VA BEACH    0150   57 52  210/ 23/ 27 1011.4    7/ 6   2/10
DUCK             0100   60 37  190/ 17/ 20 1010.6
2 E DUCK         0111      37                N/A     3/10   2/11
10 NE DUCK       0122      39                N/A     4/ 6   2/11
OREGON INLET     0100   49 48  200/ 16/ 18 1013.5
HATTERAS CG      0100   56 46  230/  9/ 14 1015.3
CAPE LOOKOUT     0200   62     220/ 14/ 17 1015.6
BEAUFORT LAB     0100   57 46  220/  8/ 11 1014.2
27 SE WRIGHTSVLE NOT AVBL
5 SE WRIGHTSVLE  NOT AVBL
225 S CAPE HAT   0150   73 74  210/ 19/ 23 1021.3    6/10   3/10
41 SE CHARLESTON 0150   72 69  190/ 19/ 21 1015.9    6/ 6   2/10

$$


USA.gov is the U.S. government's official web portal to all federal, state and local government web resources and services.